TimeCEST,TemperatureF,Dew PointF,Humidity,Sea Level PressureIn,VisibilityMPH,Wind Direction,Wind SpeedMPH,Gust SpeedMPH,PrecipitationIn,Events,Conditions,WindDirDegrees,DateUTC
12:55 AM,71.6,69.8,94,30.04,-9999.0,North,-9999.0,-,N/A,Rain,Rain,0,2013-08-30 22:55:00
1:55 AM,69.8,69.8,100,30.04,-9999.0,North,-9999.0,-,N/A,Rain,Light Rain,0,2013-08-30 23:55:00
2:00 AM,69,69,100,30.03,6,North,1.2,,,Rain,Rain,0,2013-08-31 00:00:00
5:00 AM,69,59,63,30.03,12,,1.2,,,,Clear,,2013-08-31 03:00:00
6:55 AM,71.6,64.4,78,30.01,-9999.0,North,-9999.0,-,N/A,,Clear,0,2013-08-31 04:55:00
7:55 AM,71.6,62.6,73,30.04,-9999.0,North,-9999.0,-,N/A,,Clear,0,2013-08-31 05:55:00
8:55 AM,73.4,66.2,78,30.04,-9999.0,North,-9999.0,-,N/A,,Clear,0,2013-08-31 06:55:00
9:55 AM,75.2,64.4,69,30.04,-9999.0,North,-9999.0,-,N/A,,Clear,0,2013-08-31 07:55:00
10:55 AM,78.8,59.0,51,30.06,-9999.0,North,-9999.0,-,N/A,,Clear,0,2013-08-31 08:55:00
11:00 AM,79,60,41,30.05,12,,2.3,,,,Clear,,2013-08-31 09:00:00
11:55 AM,78.8,57.2,47,30.06,-9999.0,North,-9999.0,-,N/A,,Clear,0,2013-08-31 09:55:00
12:55 PM,78.8,55.4,44,30.06,-9999.0,North,-9999.0,-,N/A,,Clear,0,2013-08-31 10:55:00
2:00 PM,81,57,34,30.05,12,,2.3,,,,Clear,,2013-08-31 12:00:00
2:55 PM,86.0,60.8,43,30.06,-9999.0,North,-9999.0,-,N/A,,Clear,0,2013-08-31 12:55:00
3:55 PM,87.8,60.8,40,30.04,-9999.0,North,-9999.0,-,N/A,,Clear,0,2013-08-31 13:55:00
4:55 PM,89.6,62.6,40,30.04,-9999.0,North,-9999.0,-,N/A,,Clear,0,2013-08-31 14:55:00
5:00 PM,90,62,29,30.01,12,,2.3,,,,Clear,,2013-08-31 15:00:00
5:55 PM,86.0,62.6,45,30.04,-9999.0,North,-9999.0,-,N/A,,Clear,0,2013-08-31 15:55:00
6:55 PM,84.2,66.2,55,30.04,-9999.0,North,-9999.0,-,N/A,,Clear,0,2013-08-31 16:55:00
9:55 PM,75.2,68.0,78,30.04,-9999.0,North,-9999.0,-,N/A,,Clear,0,2013-08-31 19:55:00
10:55 PM,75.2,69.8,83,30.06,-9999.0,North,-9999.0,-,N/A,,Clear,0,2013-08-31 20:55:00